Mullan Pass, ID

9:41 PM PST on December 11, 2017 (GMT -0800)
Mullan Pass

Weather History for KMLP - October, 2012

Change the Weather History Date:

Thursday, October 11, 2012

  Actual Average (K3TH) Record (K3TH)
Temperature  
Mean Temperature 46 °F -  
Max Temperature 55 °F 57 °F 72 °F (1996)
Min Temperature 37 °F 37 °F 35 °F (1998)
Degree Days  
Heating Degree Days 19    
Moisture  
Dew Point 31 °F    
Average Humidity 57    
Maximum Humidity 76    
Minimum Humidity 38    
Precipitation  
Precipitation 0.00 in - - ()
Sea Level Pressure  
Sea Level Pressure 29.84 in    
Wind  
Wind Speed 3 mph (SSE)    
Max Wind Speed 9 mph    
Max Gust Speed -    
Visibility 10 miles    
Events      
Averages and records for this station are not official NWS values.
T = Trace of Precipitation, MM = Missing Value Source: NWS Daily Summary

Daily Weather History Graph

Daily Weather History Graph

Search for Another Location

Airport or City:

Trip Planner

Search our weather history database for the weather conditions in past years. The results will help you decide how hot, cold, wet, or windy it might be!

Date:

Astronomy

Oct. 11, 2012 Rise Set
Actual Time 6:56 AM PDT 6:01 PM PDT
Civil Twilight 6:25 AM PDT 6:32 PM PDT
Nautical Twilight 5:50 AM PDT 7:07 PM PDT
Astronomical Twilight 5:14 AM PDT 7:43 PM PDT
Moon 2:23 AM PDT (10/11) 3:53 PM PDT (10/11)
Length of Visible Light 12h 06m
Length of Day
11h 04m
Waning Crescent, 17% of the Moon is Illuminated
Oct 11
Waning Crescent
Oct 15
New
Oct 21
First Quarter
Oct 29
Full
Nov 6
Last Quarter

Hourly Weather History & Observations

Time (PDT) Temp. Windchill Dew Point Humidity Pressure Visibility Wind Dir Wind Speed Gust Speed Precip Events Conditions
12:53 AM 46.0 °F - 30.0 °F 54% 29.81 in 10.0 mi Calm Calm - N/A   Clear
1:53 AM 46.0 °F - 30.0 °F 54% 29.81 in 10.0 mi Calm Calm - N/A   Clear
2:53 AM 45.0 °F - 30.9 °F 58% 29.81 in 10.0 mi Calm Calm - N/A   Clear
4:53 AM 43.0 °F 40.3 °F 30.9 °F 62% 29.84 in 10.0 mi SSE 4.6 mph - N/A   Clear
5:53 AM 39.0 °F 34.8 °F 30.9 °F 73% 29.87 in 10.0 mi South 5.8 mph - N/A   Clear
6:53 AM 37.9 °F 33.5 °F 30.9 °F 76% 29.89 in 10.0 mi SSE 5.8 mph - N/A   Clear
7:53 AM 37.9 °F 31.5 °F 30.9 °F 76% 29.90 in 10.0 mi SSE 9.2 mph - N/A   Clear
8:53 AM 39.9 °F 34.5 °F 32.0 °F 73% 29.89 in 10.0 mi SE 8.1 mph - N/A   Clear
9:53 AM 42.1 °F 37.1 °F 32.0 °F 67% 29.89 in 10.0 mi SSE 8.1 mph - N/A   Clear
10:53 AM 44.1 °F 40.1 °F 33.1 °F 65% 29.89 in 10.0 mi South 6.9 mph - N/A   Clear
11:53 AM 48.0 °F - 33.1 °F 56% 29.87 in 10.0 mi SSE 5.8 mph - N/A   Clear
12:53 PM 52.0 °F - 32.0 °F 47% 29.85 in 10.0 mi Calm Calm - N/A   Clear
1:53 PM 54.0 °F - 30.9 °F 41% 29.82 in 10.0 mi Calm Calm - N/A   Clear
3:53 PM 55.0 °F - 30.0 °F 38% 29.80 in 10.0 mi Calm Calm - N/A   Clear
4:53 PM 54.0 °F - 28.9 °F 38% 29.79 in 10.0 mi Calm Calm - N/A   Clear
6:53 PM 48.9 °F - 30.9 °F 50% 29.80 in 10.0 mi SSE 4.6 mph - N/A   Clear
7:53 PM 46.9 °F - 32.0 °F 56% 29.83 in 10.0 mi SSE 5.8 mph - N/A   Clear
8:53 PM 45.0 °F 41.8 °F 32.0 °F 60% 29.81 in 10.0 mi SSE 5.8 mph - N/A   Clear
9:53 PM 44.1 °F 40.8 °F 30.9 °F 60% 29.80 in 10.0 mi Variable 5.8 mph - N/A   Clear
11:53 PM 46.0 °F 43.9 °F 23.0 °F 40% 29.73 in 10.0 mi SSW 4.6 mph - N/A   Clear